LEMUR 2 LUCYBRYCE

导读

LEMUR 2 LUCYBRYCE是美国Spire Global公司LEMUR-2纳米卫星星座中的一员,2017年6月23日发射入轨,属于商用遥感卫星。它运行在近地轨道,轨道倾角约97.1°,周期约88分钟,主要承担全球船舶跟踪与气象监测任务,为商业航海和气象研究提供数据支撑,该卫星已于2023年9月陨落。

Basic Information
目录编号:
42773
目录名称:
LEMUR 2 LUCYBRYCE
国际标识:
2017-036J
轨道中心:
EARTH
卫星名称:
LEMUR 2 LUCYBRYCE
卫星全名:
--
卫星状态:
已陨落 最后检测时间 2023-09-22
发射日期:
2017-06-23 UTC
国别 :
美国 (US)
星等 :
--
Orbit Information
数据来源 国际轨道数据
星历时间: 2023-09-21T17:17:38+0800
轨道信息已过期1026天
半长轴: 6560.645km
偏心率: 0.0009077
轨道倾角: 97.103°
近地点辐角 251.639°
升交点赤经 304.969°
平近点角 108.392°
近地点: 176.554km
远地点: 188.466km
周期: 88.141分钟
每日圈数: 16.337404
Detailed Information
使用方式:
暂无